Regional Weather Roundup
Issued by NWS Bismarck, ND

Home | Current Version | Previous Version | Text Only | Print | Product List | Glossary On
Versions: 1 2 3 4 5 6 7 8 9 10 11 12 13 14 15 16 17 18 19 20 21 22 23 24 25 26 27 28 29 30 31 32 33 34 35 36 37 38 39 40 41 42 43 44 45 46 47 48 49 50
000
ASUS43 KBIS 151402
RWRBIS

NWR BROADCAST TEXT
NATIONAL WEATHER SERVICE BISMARCK ND
800 AM CST MON JAN 15 2018

NOTE: "FAIR" INDICATES FEW OR NO CLOUDS BELOW 12,000 FEET WITH NO
SIGNIFICANT WEATHER AND/OR OBSTRUCTIONS TO VISIBILITY.


CITY           SKY/WX    TMP DP  RH WIND       PRES   REMARKS
WILLISTON      FAIR     -12 -18  74 NE5       30.82R WCI -24
MINOT          FAIR     -13 -21  67 NW17      30.77R WCI -38
MINOT AFB      CLOUDY   -15 -22  70 NW20      30.77R WCI -41
BISMARCK       FAIR     -10 -18  67 NW22      30.73R WCI -36
DICKINSON      FAIR     -16 -21  78 NW15      30.67R WCI -40
GARRISON         N/A    -16 -23  70 N15       30.73R WCI -40
HETTINGER ARPT CLEAR    -13 -18  78 NW12      30.68R WCI -33
JAMESTOWN      CLOUDY   -12 -17  78 N26G32    30.62R HAZE    WCI -41
CARRINGTON     CLOUDY   -13 -18  77 NW15G24   30.69R HAZE    WCI -36
LINTON           N/A    -13 -22  64 NW15      30.69R WCI -36
OAKES            N/A    -11 -18  70 N25       30.61R WCI -39
TIOGA          FAIR     -17 -20  83 NW10      30.76R WCI -37
$$

CITY           SKY/WX    TMP DP  RH WIND       PRES   REMARKS
GRAND FORKS    BLWGSNOW -11 -16  78 N29G43    30.66R VSB 1/2 WCI -40
GRAND FORKS AF DRIZZLE  -12 -19  73 N22G29    30.68R WCI -39
DEVILS LAKE    LGT SNOW -16 -21  78 N22       30.68R WCI -44
FARGO          SNOW      -9 -13  83 N29G38    30.62R VSB 1/2 WCI -38
CANDO          FAIR     -15 -22  70 N21G28    30.72R WCI -42
CAVALIER       HAZE     -13 -18  77 N17G36    30.73R VSB 1   WCI -38
GWINNER          N/A     -9 -17  70 N21       30.60R HAZE    WCI -35
ROLLA          CLOUDY   -18 -24  76 NW25      30.68S HAZE    WCI -49
WALHALLA       FAIR     -15 -20  76 N24G35    30.75R HAZE    WCI -44
$$

CITY           SKY/WX    TMP DP  RH WIND       PRES   REMARKS
ABERDEEN       MOCLDY    -8 -14  74 N21       30.63R WCI -33
MOBRIDGE       CLEAR     -9 -17  68 N16       30.63R WCI -32
BUFFALO          N/A     -4 -10  75 NW25G35   30.54R WCI -30
RAPID CITY     CLEAR     -3  -9  75 N35G44    30.58R WCI -31
GLASGOW        PTCLDY   N/A N/A N/A SW3       30.81R
SIDNEY         CLEAR    -15 -21  74 NW3       30.84R
WOLF POINT     CLEAR    -13 -21  67 CALM      30.86R
GLENDIVE       MOCLDY   -14 -20  74 NW8       30.79R WCI -31
MILES CITY     PTCLDY   -17 -20  86 W13       30.78R WCI -39
BAKER          PTCLDY   -13 -17  82 NW8       30.70R WCI -30
$$

CITY           SKY/WX    TMP DP  RH WIND       PRES   REMARKS
BILLINGS       CLOUDY     2  -2  83 NE8       30.64R WCI -12
GREAT FALLS    CLOUDY    15   9  76 E8        30.58R WCI   4
REGINA         CLEAR    -17 -22  76 NW6       30.84F WCI -31
$$





USA.gov is the U.S. government's official web portal to all federal, state and local government web resources and services.